Regional Weather Roundup
Issued by NWS Green Bay, WI

Home | Current Version | Previous Version | Graphics & Text | Print | Product List | Glossary Off
Versions: 1 2 3 4 5 6 7 8 9 10 11 12 13 14 15 16 17 18 19 20 21 22 23 24 25 26 27 28 29 30 31 32 33 34 35 36 37 38 39 40 41 42 43 44 45 46 47 48 49 50

134
ASUS43 KGRB 270011
RWRGRB

NORTH-CENTRAL AND NORTHEAST WISCONSIN REGIONAL WEATHER ROUNDUP
NATIONAL WEATHER SERVICE GREEN BAY WI
700 PM CDT THU APR 26 2018

WIZ005-009-010>012-018-019-270100-
NORTH CENTRAL WISCONSIN

CITY           SKY/WX    TMP DP  RH WIND       PRES   REMARKS
IRONWOOD       FAIR      46  33  60 N6        29.90R
MANITOWISH WTR FAIR      45  34  65 N7        29.87R
ARBOR VITAE    CLOUDY    43  35  74 N10       29.87R
EAGLE RIVER    CLOUDY    42  32  67 N13G21    29.84R
LAND O LAKES   MOCLDY    42  34  73 N10G16    29.88R
RHINELANDER    CLOUDY    45  34  65 N13G22    29.85R
PHILLIPS       FAIR      47  34  58 N9G23     29.87R
ANTIGO         CLOUDY    52  36  53 N21G26    29.78R
TOMAHAWK       CLOUDY    46  33  60 N13G26    29.86R
MERRILL        MOCLDY    51  33  50 N20G26    29.81R
$$

WIZ013-073-270100-
NORTHEAST WISCONSIN

CITY           SKY/WX    TMP DP  RH WIND       PRES   REMARKS
IRON MOUNTAIN  CLOUDY    53  32  44 N17G26    29.79R
MARINETTE      MOCLDY    64  32  30 NW8       29.76R
OCONTO         FAIR      62  32  31 W6        29.75S
$$

WIZ017-030-035>037-045-270100-
CENTRAL WISCONSIN

CITY           SKY/WX    TMP DP  RH WIND       PRES   REMARKS
MEDFORD        FAIR      51  35  54 N16       29.81R
WAUSAU         LGT RAIN  57  35  43 N16G28    29.75R
MOSINEE        MOCLDY    61  30  31 W6        29.76F
MARSHFIELD     CLOUDY    59  39  47 NW12      29.76R
WISC RAPIDS    MOCLDY    65  28  24 W9        29.76F
STEVENS POINT  CLOUDY    62  29  29 SW6       29.76S
WAUPACA        FAIR      67  24  19 W7        29.76F
SHAWANO        MOCLDY    66  31  27 CALM      29.75F
CLINTONVILLE   CLOUDY    65  26  23 NW3       29.76S
WAUTOMA        CLOUDY    66  27  23 W14       29.77F
$$

WIZ038-039-048-051-270100-
FOX VALLEY

CITY           SKY/WX    TMP DP  RH WIND       PRES   REMARKS
NWS GREEN BAY  FAIR      63  38  39 S6        29.76F
APPLETON       MOCLDY    63  23  22 W6        29.75F
OSHKOSH        FAIR      65  33  30 SW7       29.76F
FOND DU LAC    FAIR      64  31  28 SW7       29.77F
$$

WIZ022-050-052-270100-
EAST CENTRAL WISCONSIN

CITY           SKY/WX    TMP DP  RH WIND       PRES   REMARKS
EPHRAIM        MOCLDY    48  34  56 S9        29.75F
WASHINGTON ISL MOCLDY    41  34  75 S9        29.76S
STURGEON BAY   FAIR      51  37  58 S10       29.77F
MANITOWOC      FAIR      49  34  56 S10       29.79F
SHEBOYGAN      FAIR      54  35  48 S10       29.79F
$$

LMZ563-521-522-541>543-270100-
LAKESHORE

STATION/POSITION TIME  TEMP    WIND        PRES    VSBY  WAVE
                       AIR SEA DIR/SP/G                  HT/PER
                 (UTC) (F)     (DEG/KT/KT) (MB)    (MI)  (FT/S)
SHEBOYGAN LKSHOR 0000   45     180/ 17/ 18 1009.2F
KEWAUNEE LKSHORE 2342   43     170/ 15/ 16 1008.0F
NORTHPORT PIER   2340   45                 1007.8F
SISTER BAY LKSHO 2357   49     150/ 10/ 11   N/A
MENOMINEE LKSHOR 2342   56     190/  7/  8 1007.3S
$$




USA.gov is the U.S. government's official web portal to all federal, state and local government web resources and services.